FW9022 Weather Reports


Display with metric or nautical units.
time (UTC)temp
F
wind
direction
speed
MPH
gust
MPH
rain 1hr
in
rain 24hr
in
rain mn
in
humidity
%
barometer
mb
20260507100849 60 217 0.0 1.0 0.00 0.58 0.08 98 1011.2
20260507095828 60 217 0.0 0.0 0.00 0.58 0.08 98 1010.9
20260507094826 60 217 0.0 0.0 0.00 0.58 0.08 98 1010.9
20260507093819 60 217 0.0 0.0 0.00 0.58 0.08 98 1010.1
20260507092854 59 217 0.0 1.0 0.00 0.58 0.08 98 1010.6
20260507091826 59 217 0.0 1.0 0.00 0.58 0.08 98 1010.6
20260507090834 59 217 0.0 0.0 0.00 0.58 0.08 98 1010.3
20260507085834 60 217 0.0 0.0 0.00 0.58 0.08 98 1010.2
20260507084827 60 217 0.0 0.0 0.00 0.58 0.08 98 1010.2
20260507083821 60 217 0.0 0.0 0.00 0.58 0.08 98 1010.1
20260507082819 60 217 0.0 0.0 0.00 0.58 0.08 98 1010.2
20260507081833 60 217 0.0 1.0 0.00 0.58 0.08 98 1010.2
20260507080839 60 217 0.0 0.0 0.00 0.58 0.08 98 1010.3
20260507075822 60 217 0.0 2.0 0.00 0.58 0.08 98 1011.2
20260507074835 60 218 0.0 2.0 0.00 0.58 0.08 98 1011.2
20260507073849 60 215 2.0 4.0 0.01 0.58 0.08 98 1010.3
20260507072822 60 175 0.0 0.0 0.01 0.58 0.08 98 1010.6
20260507071820 60 175 0.0 0.0 0.01 0.58 0.08 98 1010.6
20260507070845 61 175 0.0 0.0 0.01 0.58 0.08 98 1010.6
20260507065824 61 175 0.0 0.0 0.01 0.58 0.08 98 1010.7
20260507064821 61 175 0.0 0.0 0.01 0.58 0.08 98 1010.7
20260507063836 61 175 0.0 0.0 0.00 0.57 0.07 98 1011.2
20260507062829 61 175 0.0 0.0 0.00 0.57 0.07 98 1011.3
20260507061823 61 175 0.0 0.0 0.01 0.57 0.07 98 1011.3
20260507060852 61 175 0.0 1.0 0.01 0.57 0.07 98 1012.1
20260507055830 61 175 0.0 1.0 0.04 0.57 0.07 98 1012.1
20260507054823 61 175 0.0 0.0 0.05 0.57 0.07 98 1012.1
20260507053838 61 175 0.0 1.0 0.05 0.57 0.07 98 1012.9
20260507052834 61 175 0.0 0.0 0.06 0.57 0.07 98 1012.7
20260507051828 61 175 0.0 0.0 0.06 0.57 0.07 97 1012.7
20260507050912 61 175 0.0 2.0 0.06 0.56 0.06 97 1013.5
20260507045851 61 175 0.0 0.0 0.04 0.53 0.03 97 1013.4
20260507044827 61 175 0.0 0.0 0.03 0.52 0.02 97 1013.4
20260507043821 61 175 0.0 2.0 0.05 0.52 0.02 97 1013.5
20260507042835 61 175 0.0 0.0 0.04 0.51 0.01 97 1013.7
20260507041828 61 175 0.0 1.0 0.04 0.51 0.01 97 1013.7
20260507040837 61 175 0.0 0.0 0.03 0.50 0.00 97 1013.8
20260507035817 61 175 0.0 1.0 0.02 0.49 0.49 97 1013.0
20260507034851 61 175 0.0 2.0 0.02 0.49 0.49 97 1013.0
20260507033827 62 175 0.0 0.0 0.00 0.47 0.47 97 1013.2
20260507032822 61 175 0.0 0.0 0.00 0.47 0.47 97 1013.3
20260507031835 61 175 0.0 1.0 0.00 0.47 0.47 97 1013.3
20260507030840 61 175 0.0 3.0 0.00 0.47 0.47 97 1013.5
20260507025843 61 230 0.0 1.0 0.01 0.47 0.47 97 1013.5
20260507024836 61 230 0.0 1.0 0.03 0.47 0.47 97 1013.5
20260507023849 62 231 0.0 0.0 0.03 0.47 0.47 96 1013.0
20260507022823 62 231 0.0 1.0 0.03 0.47 0.47 97 1012.9
20260507021820 62 252 0.0 2.0 0.04 0.47 0.47 97 1012.9
20260507020845 62 267 0.0 9.0 0.04 0.47 0.47 97 1011.8
20260507015824 62 136 0.0 6.0 0.03 0.46 0.46 96 1015.2
20260507014821 62 213 0.0 0.0 0.01 0.44 0.44 97 1015.2
20260507013836 62 213 0.0 1.0 0.02 0.44 0.44 96 1013.9
20260507012830 62 213 0.0 0.0 0.03 0.44 0.44 96 1013.8
20260507011824 62 213 0.0 0.0 0.05 0.43 0.43 96 1013.8
20260507010832 63 213 0.0 0.0 0.06 0.43 0.43 96 1013.9
20260507005852 63 213 0.0 2.0 0.06 0.43 0.43 96 1013.9
20260507004824 63 121 0.0 0.0 0.06 0.43 0.43 96 1013.9
20260507003818 63 121 0.0 3.0 0.05 0.42 0.42 96 1013.3
20260507002856 63 246 0.0 1.0 0.07 0.41 0.41 96 1013.6
20260507001848 63 246 0.0 1.0 0.09 0.39 0.39 95 1013.6
20260507000832 63 246 0.0 3.0 0.08 0.37 0.37 95 1012.6
20260506235831 64 144 0.0 1.0 0.09 0.37 0.37 95 1012.6
20260506234830 64 144 0.0 3.0 0.09 0.37 0.37 95 1012.6
20260506233825 65 123 0.0 4.0 0.09 0.37 0.37 95 1013.0
20260506232820 65 186 0.0 1.0 0.06 0.34 0.34 95 1013.1
20260506231818 65 186 0.0 0.0 0.02 0.30 0.30 95 1013.1
20260506230842 65 186 0.0 2.0 0.01 0.29 0.29 94 1013.0
20260506225822 66 186 0.0 1.0 0.00 0.28 0.28 94 1012.8
20260506224836 66 144 0.0 0.0 0.01 0.28 0.28 94 1012.8
20260506223855 66 144 0.0 0.0 0.02 0.28 0.28 93 1012.7
20260506222828 66 144 0.0 1.0 0.02 0.28 0.28 93 1012.0
20260506221843 66 137 0.0 3.0 0.03 0.28 0.28 92 1012.0
20260506220847 66 133 1.0 3.0 0.03 0.28 0.28 92 1013.3
20260506215830 67 49 0.0 2.0 0.03 0.28 0.28 92 1013.6
20260506214824 68 49 0.0 0.0 0.02 0.27 0.27 90 1013.6
20260506213858 68 50 0.0 0.0 0.01 0.26 0.26 87 1013.8
20260506212831 69 50 0.0 0.0 0.01 0.26 0.26 82 1012.9
20260506211847 70 50 0.0 2.0 0.00 0.25 0.25 80 1012.9
20260506210850 71 49 0.0 2.0 0.00 0.25 0.25 75 1013.4
20260506205850 72 42 0.0 0.0 0.00 0.25 0.25 74 1013.4
20260506204823 72 42 0.0 2.0 0.00 0.25 0.25 73 1013.4
20260506203822 73 52 1.0 2.0 0.00 0.25 0.25 72 1013.1
20260506202836 73 307 0.0 1.0 0.00 0.25 0.25 71 1013.0
20260506201851 74 307 0.0 4.0 0.00 0.25 0.25 71 1013.0
20260506200855 74 114 0.0 2.0 0.00 0.25 0.25 72 1012.7
20260506195858 73 171 0.0 10.0 0.00 0.25 0.25 76 1013.1
20260506194832 73 132 1.0 5.0 0.00 0.25 0.25 78 1013.1
20260506193826 73 126 1.0 6.0 0.00 0.25 0.25 78 1013.1
20260506192840 73 183 1.0 6.0 0.00 0.25 0.25 78 1013.3
20260506191835 72 229 0.0 5.0 0.00 0.25 0.25 79 1013.3
20260506190838 72 120 1.0 7.0 0.00 0.25 0.25 79 1013.0
20260506185837 71 80 0.0 4.0 0.00 0.25 0.25 81 1012.9
20260506184835 71 169 3.0 6.0 0.01 0.25 0.25 80 1012.9
20260506183829 70 122 2.0 10.0 0.01 0.25 0.25 83 1012.9
20260506182823 70 126 4.0 7.0 0.01 0.25 0.25 80 1013.2
20260506181837 69 130 4.0 9.0 0.01 0.25 0.25 84 1013.2
20260506180846 68 150 1.0 6.0 0.01 0.25 0.25 88 1012.8
20260506175825 67 152 0.0 10.0 0.01 0.25 0.25 88 1012.6
20260506174819 67 104 6.0 10.0 0.00 0.24 0.24 87 1012.6
20260506173853 67 130 1.0 7.0 0.00 0.24 0.24 91 1012.7
20260506172831 66 115 2.0 7.0 0.00 0.24 0.24 92 1013.4
20260506171826 65 106 0.0 2.0 0.00 0.24 0.24 95 1013.4
20260506170851 64 147 0.0 7.0 0.01 0.24 0.24 95 1013.2
20260506165835 64 127 1.0 4.0 0.03 0.24 0.24 96 1014.1
20260506164830 63 139 0.0 3.0 0.04 0.24 0.24 96 1014.1
20260506163824 63 142 0.0 4.0 0.06 0.24 0.24 96 1015.0
20260506162823 63 159 0.0 1.0 0.09 0.24 0.24 96 1015.6
20260506161818 62 159 0.0 5.0 0.20 0.24 0.24 95 1015.6
20260506160842 62 132 0.0 2.0 0.22 0.24 0.24 95 1016.1
20260506155842 61 132 0.0 0.0 0.20 0.21 0.21 94 1015.7
20260506154820 61 132 0.0 1.0 0.20 0.20 0.20 94 1015.7
20260506153835 61 132 0.0 2.0 0.18 0.18 0.18 93 1015.4
20260506152829 62 132 1.0 2.0 0.15 0.15 0.15 92 1015.4
20260506151823 63 175 0.0 0.0 0.05 0.05 0.05 90 1015.4
20260506150851 63 175 0.0 1.0 0.02 0.02 0.02 89 1014.1
20260506145831 64 175 0.0 0.0 0.01 0.01 0.01 88 1013.9
20260506144845 64 175 0.0 0.0 0.00 0.00 0.00 86 1013.9
20260506143823 64 175 0.0 0.0 0.00 0.00 0.00 83 1013.5
20260506142834 64 175 0.0 1.0 0.00 0.00 0.00 83 1013.6
20260506141828 64 175 0.0 0.0 0.00 0.00 0.00 81 1013.6
20260506140852 64 175 0.0 2.0 0.00 0.00 0.00 81 1013.5
20260506135836 64 175 0.0 0.0 0.00 0.00 0.00 83 1013.0
20260506134829 64 175 0.0 0.0 0.00 0.00 0.00 81 1013.0
20260506133824 64 174 0.0 0.0 0.00 0.00 0.00 79 1012.4
20260506132822 64 174 0.0 2.0 0.00 0.00 0.00 77 1013.5
20260506131838 64 174 1.0 1.0 0.00 0.00 0.00 78 1013.5
20260506130843 64 174 0.0 3.0 0.00 0.00 0.00 76 1012.8
20260506125823 64 168 0.0 0.0 0.00 0.00 0.00 74 1013.0
20260506124821 64 168 0.0 0.0 0.00 0.00 0.00 75 1013.0
20260506123836 64 168 0.0 2.0 0.00 0.00 0.00 74 1012.5
20260506122830 64 168 1.0 2.0 0.00 0.00 0.00 75 1012.6
20260506121845 65 168 0.0 0.0 0.00 0.00 0.00 75 1012.6
20260506120913 65 168 0.0 1.0 0.00 0.00 0.00 72 1012.3
20260506115833 65 230 0.0 1.0 0.00 0.00 0.00 72 1012.3
20260506114827 65 230 1.0 3.0 0.00 0.00 0.00 71 1012.3
20260506113824 65 126 0.0 4.0 0.00 0.00 0.00 70 1012.3
20260506112819 65 114 0.0 4.0 0.00 0.00 0.00 70 1012.4
20260506111833 65 140 2.0 5.0 0.00 0.00 0.00 69 1012.4
20260506110837 65 153 1.0 11.0 0.00 0.00 0.00 68 1013.1
20260506105820 65 159 2.0 7.0 0.00 0.00 0.00 68 1012.7
20260506104834 65 152 3.0 7.0 0.00 0.00 0.00 67 1012.7
20260506103828 65 140 4.0 9.0 0.00 0.00 0.00 66 1012.4
20260506102826 66 148 5.0 11.0 0.00 0.00 0.00 66 1012.4
20260506101841 66 169 3.0 11.0 0.00 0.00 0.00 67 1012.4